TimeEST,TemperatureF,Dew PointF,Humidity,Sea Level PressureIn,VisibilityMPH,Wind Direction,Wind SpeedMPH,Gust SpeedMPH,PrecipitationIn,Events,Conditions,WindDirDegrees,DateUTC
12:53 AM,57.0,37.0,47,30.02,10.0,NNW,8.1,18.4,N/A,,Overcast,340,2013-03-02 05:53:00
1:53 AM,57.0,39.0,51,30.01,10.0,NNW,9.2,18.4,N/A,,Overcast,340,2013-03-02 06:53:00
2:53 AM,55.9,39.0,53,30.01,10.0,NNW,6.9,-,N/A,,Overcast,330,2013-03-02 07:53:00
3:53 AM,55.9,39.9,55,30.01,10.0,North,8.1,-,N/A,,Overcast,360,2013-03-02 08:53:00
4:53 AM,55.0,39.9,57,30.01,10.0,North,10.4,-,N/A,,Mostly Cloudy,350,2013-03-02 09:53:00
5:53 AM,53.6,39.2,58,30.03,10.0,North,8.1,-,N/A,,Mostly Cloudy,360,2013-03-02 10:53:00
6:53 AM,53.1,39.0,59,30.03,10.0,NNE,6.9,-,N/A,,Overcast,20,2013-03-02 11:53:00
7:53 AM,53.1,39.0,59,30.04,10.0,NE,6.9,-,N/A,,Clear,50,2013-03-02 12:53:00
8:53 AM,54.0,39.0,57,30.04,10.0,NE,4.6,-,N/A,,Overcast,50,2013-03-02 13:53:00
9:53 AM,55.9,39.0,53,30.05,10.0,East,3.5,-,N/A,,Clear,90,2013-03-02 14:53:00
10:53 AM,55.9,37.0,49,30.06,10.0,NNE,6.9,-,N/A,,Overcast,30,2013-03-02 15:53:00
11:53 AM,57.9,39.0,49,30.05,10.0,NNE,3.5,-,N/A,,Partly Cloudy,30,2013-03-02 16:53:00
12:53 PM,57.9,39.9,51,30.04,10.0,North,8.1,-,N/A,,Mostly Cloudy,350,2013-03-02 17:53:00
1:53 PM,57.9,42.1,56,30.02,10.0,NW,12.7,21.9,N/A,,Partly Cloudy,320,2013-03-02 18:53:00
2:53 PM,59.0,39.0,48,30.01,10.0,NW,12.7,20.7,N/A,,Partly Cloudy,320,2013-03-02 19:53:00
3:53 PM,59.0,37.0,44,29.99,10.0,NW,10.4,-,N/A,,Partly Cloudy,320,2013-03-02 20:53:00
4:53 PM,61.0,37.9,42,30.00,10.0,NW,8.1,-,N/A,,Partly Cloudy,320,2013-03-02 21:53:00
5:53 PM,57.9,39.0,49,30.01,10.0,NNW,5.8,-,N/A,,Mostly Cloudy,330,2013-03-02 22:53:00
6:53 PM,55.9,39.0,53,30.01,10.0,NNW,5.8,-,N/A,,Partly Cloudy,330,2013-03-02 23:53:00
7:53 PM,55.4,39.2,54,30.04,10.0,NNW,3.5,-,N/A,,Mostly Cloudy,340,2013-03-03 00:53:00
8:53 PM,54.0,39.9,59,30.04,10.0,Calm,Calm,-,N/A,,Partly Cloudy,0,2013-03-03 01:53:00
9:53 PM,54.0,39.9,59,30.05,10.0,NNE,3.5,-,N/A,,Overcast,30,2013-03-03 02:53:00
10:53 PM,53.1,39.9,61,30.04,10.0,Calm,Calm,-,0.00,Rain,Light Rain,0,2013-03-03 03:53:00
11:53 PM,52.0,42.1,69,30.03,10.0,Calm,Calm,-,0.00,,Overcast,0,2013-03-03 04:53:00